Location: ?astrovice
(49.6513°N, 14.9287°E)
Time: 00:22:00
(UTC+00:00)

Cosmos 1812 Rocket - Pass Details

Date: 09 April 2020
Orbit: 607 x 631 km, 82.5° (Epoch: 30 May)

Event Time Altitude Azimuth Distance (km) Brightness Sun altitude
Exits shadow 19:25:17 23° 155° (SSE) 1,289 4.7 -15.7°
Maximum altitude 19:27:36 46° 93° (E) 821 3.8 -16.0°
Drops below altitude 10° 19:31:46 10° 21° (NNE) 1,970 6.3 -16.5°
Sets 19:34:03 0° 15° (NNE) 2,879 7.3 -16.8°
